Date String (YYYY-MM-DD hh:mm:ss) UTC,Instrument flags,Ambient pressure (hPa),Sample flow (lpm),Bypass flow (lpm),Sample temperature (°C),Ambient temperature (°C),ASC tube jacket temperature (°C),LED temperature (°C),Box temperature (°C),Sample RH (%),Span deviation,Mass concentration (μg/m³),Mass concentration (μg/m³),Mass concentration (μg/m³)
DateTimeUTC,F1_M11,P_M11,Q1_M11,Q2_M11,T1_M11,T2_M11,T3_M11,T4_M11,T5_M11,U1_M11,ZSPAN_M11,X0_M11,X2_M11,X1_M11
2021-12-02 21:00:00,,0825.9,5.00,0.00,30.1,27.1,00.0,38.9,31.4,08.9,0000.0,0011.69,0001.83,0000.75
2021-12-02 21:01:00,,0826.0,4.98,0.00,29.9,25.7,00.0,38.8,31.0,08.9,0000.0,0011.94,0001.88,0000.76
2021-12-02 21:02:00,,0825.9,5.01,0.00,29.8,25.9,00.0,38.8,31.1,08.9,0000.0,0011.81,0001.89,0000.77
2021-12-02 21:03:00,,0825.9,4.99,0.00,29.7,26.4,00.0,38.7,31.2,08.9,0000.0,0011.68,0001.89,0000.77
2021-12-02 21:04:00,,0825.9,5.00,0.00,29.7,26.9,00.0,38.7,31.2,08.9,0000.0,0012.80,0001.93,0000.77
2021-12-02 21:05:00,,0825.9,5.01,0.00,29.7,27.4,00.0,38.7,31.3,08.8,0000.0,0013.22,0001.99,0000.77
2021-12-02 21:06:00,,0825.9,4.99,0.00,29.7,27.8,00.0,38.7,31.4,08.7,0000.0,0013.19,0001.96,0000.77
2021-12-02 21:07:00,,0825.9,4.99,0.00,29.8,28.2,00.0,38.7,31.5,08.8,0000.0,0012.32,0001.92,0000.76
2021-12-02 21:08:00,,0825.9,5.01,0.00,29.8,28.5,00.0,38.7,31.6,08.8,0000.0,0011.20,0001.85,0000.76
2021-12-02 21:09:00,,0825.8,5.00,0.00,29.8,28.7,00.0,38.7,31.7,08.8,0000.0,0010.53,0001.80,0000.76
2021-12-02 21:10:00,,0825.8,4.99,0.00,29.9,28.9,00.0,38.7,31.7,08.8,0000.0,0010.71,0001.83,0000.76
2021-12-02 21:11:00,,0825.8,5.00,0.00,29.9,29.0,00.0,38.8,31.8,08.7,0000.0,0010.48,0001.89,0000.76
2021-12-02 21:12:00,,0825.8,5.01,0.00,30.0,29.2,00.0,38.8,31.9,08.6,0000.0,0010.17,0001.87,0000.77
2021-12-02 21:13:00,,0825.8,5.00,0.00,30.0,29.3,00.0,38.8,31.9,08.6,0000.0,0010.77,0001.87,0000.77
2021-12-02 21:14:00,,0825.9,5.00,0.00,30.1,29.4,00.0,38.9,32.0,08.6,0000.0,0011.31,0001.79,0000.77
2021-12-02 21:15:00,,0825.9,5.00,0.00,30.1,28.2,00.0,38.9,31.6,08.5,0000.0,0011.08,0001.69,0000.77
2021-12-02 21:16:00,,0826.1,5.00,0.00,29.9,26.2,00.0,38.8,31.1,08.5,0000.0,0010.64,0001.65,0000.78
2021-12-02 21:17:00,,0826.0,5.01,0.00,29.8,25.9,00.0,38.8,31.0,08.5,0000.0,0011.21,0001.71,0000.77
2021-12-02 21:18:00,,0826.0,5.00,0.00,29.7,26.2,00.0,38.8,31.1,08.6,0000.0,0011.30,0001.73,0000.76
2021-12-02 21:19:00,,0826.1,5.00,0.00,29.7,26.7,00.0,38.7,31.2,08.7,0000.0,0011.49,0001.79,0000.77
2021-12-02 21:20:00,,0826.0,4.99,0.00,29.6,27.2,00.0,38.7,31.3,08.6,0000.0,0011.92,0001.84,0000.77
2021-12-02 21:21:00,,0825.8,5.00,0.00,29.7,27.6,00.0,38.7,31.4,08.5,0000.0,0011.39,0001.82,0000.76
2021-12-02 21:22:00,,0825.7,4.99,0.00,29.7,28.0,00.0,38.7,31.5,08.6,0000.0,0011.04,0001.79,0000.74
2021-12-02 21:23:00,,0825.8,5.00,0.00,29.8,28.4,00.0,38.7,31.6,08.6,0000.0,0011.34,0001.82,0000.73
2021-12-02 21:24:00,,0825.8,4.99,0.00,29.8,28.6,00.0,38.7,31.7,08.4,0000.0,0011.51,0001.81,0000.72
2021-12-02 21:25:00,,0826.1,5.01,0.00,29.9,28.8,00.0,38.7,31.7,08.5,0000.0,0011.18,0001.87,0000.72
2021-12-02 21:26:00,,0826.0,5.01,0.00,29.9,29.0,00.0,38.7,31.8,08.5,0000.0,0010.35,0001.94,0000.72
2021-12-02 21:27:00,,0826.0,4.99,0.00,30.0,29.1,00.0,38.7,31.9,08.5,0000.0,0010.70,0001.97,0000.70
2021-12-02 21:28:00,,0825.8,4.99,0.00,30.0,29.3,00.0,38.8,32.0,08.5,0000.0,0010.83,0001.95,0000.71
2021-12-02 21:29:00,,0825.8,5.01,0.00,30.1,29.4,00.0,38.8,32.0,08.4,0000.0,0010.64,0001.91,0000.72
2021-12-02 21:30:00,,0825.9,4.99,0.00,30.1,28.0,00.0,38.8,31.6,08.4,0000.0,0010.48,0001.83,0000.71
2021-12-02 21:31:00,,0825.9,5.01,0.00,29.9,25.9,00.0,38.8,31.0,08.4,0000.0,0010.22,0001.79,0000.70
2021-12-02 21:32:00,,0825.7,4.99,0.00,29.7,25.8,00.0,38.8,31.0,08.5,0000.0,0010.00,0001.74,0000.70
2021-12-02 21:33:00,,0825.8,5.00,0.00,29.6,26.3,00.0,38.7,31.0,08.5,0000.0,0009.95,0001.70,0000.71
2021-12-02 21:34:00,,0825.8,5.00,0.00,29.6,26.8,00.0,38.7,31.1,08.6,0000.0,0009.59,0001.69,0000.72
2021-12-02 21:35:00,,0825.7,5.00,0.00,29.6,27.3,00.0,38.6,31.3,08.5,0000.0,0008.59,0001.72,0000.74
2021-12-02 21:36:00,,0825.7,5.00,0.00,29.7,27.7,00.0,38.6,31.4,08.4,0000.0,0009.23,0001.72,0000.73
2021-12-02 21:37:00,,0825.7,5.03,0.00,29.7,28.1,00.0,38.6,31.5,08.3,0000.0,0009.18,0001.70,0000.74
2021-12-02 21:38:00,,0825.7,5.00,0.00,29.7,28.4,00.0,38.6,31.6,08.3,0000.0,0008.79,0001.69,0000.73
2021-12-02 21:39:00,,0825.7,4.99,0.00,29.8,28.6,00.0,38.7,31.7,08.3,0000.0,0008.15,0001.74,0000.73
2021-12-02 21:40:00,,0825.7,5.00,0.00,29.9,28.8,00.0,38.7,31.7,08.3,0000.0,0008.33,0001.78,0000.73
2021-12-02 21:41:00,,0825.7,5.00,0.00,29.9,29.0,00.0,38.7,31.8,08.3,0000.0,0008.95,0001.82,0000.74
2021-12-02 21:42:00,,0825.7,5.01,0.00,30.0,29.2,00.0,38.7,31.9,08.3,0000.0,0009.02,0001.81,0000.75
2021-12-02 21:43:00,,0825.6,4.99,0.00,30.0,28.6,00.0,38.8,31.8,08.3,0000.0,0009.55,0001.82,0000.75
2021-12-02 21:44:00,,0825.6,5.00,0.00,29.9,26.4,00.0,38.7,31.2,08.4,0000.0,0009.58,0001.86,0000.75
2021-12-02 21:45:00,,0825.6,5.01,0.00,29.7,25.7,00.0,38.7,30.9,08.5,0000.0,0009.43,0001.88,0000.78
2021-12-02 21:46:00,,0825.6,5.00,0.00,29.6,26.1,00.0,38.7,31.0,08.6,0000.0,0009.92,0001.90,0000.81
2021-12-02 21:47:00,,0825.6,5.00,0.00,29.6,26.5,00.0,38.6,31.1,08.6,0000.0,0009.66,0001.91,0000.85
2021-12-02 21:48:00,,0825.6,4.98,0.00,29.5,27.1,00.0,38.6,31.1,08.7,0000.0,0011.06,0001.97,0000.91
2021-12-02 21:49:00,,0825.7,5.01,0.00,29.6,27.5,00.0,38.6,31.2,08.7,0000.0,0012.22,0002.04,0000.97
2021-12-02 21:50:00,,0825.6,5.00,0.00,29.6,27.9,00.0,38.6,31.3,08.7,0000.0,0012.55,0002.09,0001.03
2021-12-02 21:51:00,,0825.6,5.00,0.00,29.6,28.2,00.0,38.6,31.4,08.6,0000.0,0012.61,0002.18,0001.09
2021-12-02 21:52:00,,0825.6,4.99,0.00,29.7,28.4,00.0,38.6,31.5,08.5,0000.0,0012.24,0002.25,0001.15
2021-12-02 21:53:00,,0825.6,5.01,0.00,29.7,28.6,00.0,38.6,31.6,08.5,0000.0,0012.38,0002.30,0001.20
2021-12-02 21:54:00,,0825.6,5.00,0.00,29.8,28.8,00.0,38.6,31.7,08.4,0000.0,0012.05,0002.34,0001.25
2021-12-02 21:55:00,,0825.6,5.00,0.00,29.8,29.0,00.0,38.6,31.7,08.4,0000.0,0011.74,0002.42,0001.30
2021-12-02 21:56:00,,0825.7,5.00,0.00,29.9,29.1,00.0,38.7,31.8,08.3,0000.0,0012.39,0002.46,0001.34
2021-12-02 21:57:00,,0825.7,5.01,0.00,30.0,29.3,00.0,38.7,31.9,08.3,0000.0,0013.03,0002.56,0001.35
2021-12-02 21:58:00,,0825.7,4.99,0.00,30.0,28.5,00.0,38.7,31.7,08.3,0000.0,0012.70,0002.57,0001.38
2021-12-02 21:59:00,,0825.6,5.01,0.00,29.8,26.3,00.0,38.7,31.0,08.4,0000.0,0011.81,0002.56,0001.39
